Location: Carter Cabin
(41.0271°N, 122.9339°W)
Time: 06:14:43
(UTC+00:00)

CRYOSAT 2 - Visible Passes

Search period start: 13 July 2024 00:00
Search period end: 23 July 2024 00:00
Orbit: 717 x 721 km, 92.0° (Epoch: 12 July)

Date Brightness Start Highest point End Pass type
(mag) Time Alt. Az. Time Alt. Az. Time Alt. Az.
13 Jul 5.8 07:03:49 10° NNE 07:07:29 26° ENE 07:07:29 26° ENE visible
13 Jul 5.5 08:42:26 10° NNW 08:46:43 32° WNW 08:46:44 32° WNW visible
14 Jul 4.4 07:51:38 10° N 07:56:08 75° NNE 07:56:08 75° NNE visible
14 Jul 6.8 09:34:23 10° WNW 09:34:34 10° WNW 09:34:47 10° WNW visible
15 Jul 5.7 07:01:48 10° NNE 07:05:32 28° ENE 07:05:32 28° ENE visible
15 Jul 5.7 08:40:36 10° NNW 08:44:46 29° WNW 08:44:46 29° WNW visible
16 Jul 4.5 07:49:43 10° N 07:54:10 74° N 07:54:10 74° N visible
17 Jul 5.5 06:59:48 10° NNE 07:03:34 30° ENE 07:03:34 30° ENE visible
17 Jul 5.8 08:38:47 10° NNW 08:42:49 27° WNW 08:42:49 27° WNW visible
18 Jul 6.7 06:12:27 10° ENE 06:12:58 10° ENE 06:12:58 10° ENE visible
18 Jul 4.5 07:47:49 10° N 07:52:13 70° NNW 07:52:13 70° NNW visible
19 Jul 5.4 06:57:48 10° NNE 07:01:37 33° ENE 07:01:37 33° ENE visible
19 Jul 6.0 08:36:57 10° NNW 08:40:51 24° WNW 08:40:51 24° WNW visible
20 Jul 6.6 06:09:45 10° ENE 06:11:01 11° ENE 06:11:01 11° ENE visible
20 Jul 4.6 07:45:54 10° N 07:50:15 65° NW 07:50:15 65° NW visible
21 Jul 5.3 06:55:48 10° NNE 06:59:39 36° ENE 06:59:39 36° ENE visible
21 Jul 6.1 08:35:10 10° NNW 08:38:54 22° WNW 08:38:54 22° WNW visible
22 Jul 6.5 06:07:22 10° NE 06:09:03 13° ENE 06:09:03 13° ENE visible
22 Jul 4.7 07:44:00 10° N 07:48:18 60° NW 07:48:18 60° NW visible
